Satellite: NO-44
Catalog number: 26931
Epoch time:      10119.16168122
Element set:     445
Inclination:      067.0542 deg
RA of node:       330.2877 deg
Eccentricity:    0.0005834
Arg of perigee:   262.6501 deg
Mean anomaly:     097.3935 deg
Mean motion:   14.29595390 rev/day
Decay rate:       3.03e-06 rev/day^2
Epoch rev:           44774
Checksum:              302

Satellite: SO-50
Catalog number: 27607
Epoch time:      10119.48531387
Element set:     161
Inclination:      064.5570 deg
RA of node:       144.4431 deg
Eccentricity:    0.0034788
Arg of perigee:   100.2705 deg
Mean anomaly:     260.2327 deg
Mean motion:   14.71531285 rev/day
Decay rate:        5.8e-07 rev/day^2
Epoch rev:           39521
Checksum:              282

Satellite: CO-55
Catalog number: 27844
Epoch time:      10119.07779779
Element set:     835
Inclination:      098.7103 deg
RA of node:       128.7570 deg
Eccentricity:    0.0009591
Arg of perigee:   318.6163 deg
Mean anomaly:     041.4285 deg
Mean motion:   14.20702055 rev/day
Decay rate:        6.7e-07 rev/day^2
Epoch rev:           35411
Checksum:              314

Satellite: CO-57
Catalog number: 27848
Epoch time:      10119.02978399
Element set:     784
Inclination:      098.7145 deg
RA of node:       127.7945 deg
Eccentricity:    0.0009608
Arg of perigee:   323.6057 deg
Mean anomaly:     036.4455 deg
Mean motion:   14.20495451 rev/day
Decay rate:        7.7e-07 rev/day^2
Epoch rev:           35406
Checksum:              342

Satellite: AO-51
Catalog number: 28375
Epoch time:      10118.90707768
Element set:     663
Inclination:      098.0612 deg
RA of node:       115.2141 deg
Eccentricity:    0.0082961
Arg of perigee:   247.2921 deg
Mean anomaly:     111.9486 deg
Mean motion:   14.40681601 rev/day
Decay rate:        4.2e-07 rev/day^2
Epoch rev:           30641
Checksum:              287

Satellite: GENESAT1
Catalog number: 29655
Epoch time:      10119.87807298
Element set:      34
Inclination:      040.0181 deg
RA of node:       342.1903 deg
Eccentricity:    0.0009043
Arg of perigee:   319.0604 deg
Mean anomaly:     040.9540 deg
Mean motion:   15.84145564 rev/day
Decay rate:     7.9480e-04 rev/day^2
Epoch rev:           19230
Checksum:              286

Satellite: CP3
Catalog number: 31129
Epoch time:      10119.77971609
Element set:     564
Inclination:      097.9427 deg
RA of node:       161.9296 deg
Eccentricity:    0.0103351
Arg of perigee:   024.7646 deg
Mean anomaly:     335.8369 deg
Mean motion:   14.52246695 rev/day
Decay rate:       3.96e-06 rev/day^2
Epoch rev:           16083
Checksum:              332

Satellite: CO-65
Catalog number: 32785
Epoch time:      10119.67572223
Element set:     667
Inclination:      097.9002 deg
RA of node:       185.2644 deg
Eccentricity:    0.0016186
Arg of perigee:   083.0106 deg
Mean anomaly:     277.2981 deg
Mean motion:   14.81637437 rev/day
Decay rate:       2.57e-06 rev/day^2
Epoch rev:           10830
Checksum:              314

Satellite: KKS-1
Catalog number: 33493
Epoch time:      10119.67609162
Element set:     433
Inclination:      098.0788 deg
RA of node:       238.7688 deg
Eccentricity:    0.0018721
Arg of perigee:   299.9977 deg
Mean anomaly:     059.9378 deg
Mean motion:   14.80958079 rev/day
Decay rate:       5.43e-06 rev/day^2
Epoch rev:            6830
Checksum:              366

Satellite: SOHLA-1
Catalog number: 33496
Epoch time:      10118.79452586
Element set:      89
Inclination:      098.0530 deg
RA of node:       228.5208 deg
Eccentricity:    0.0006687
Arg of perigee:   009.9144 deg
Mean anomaly:     350.2193 deg
Mean motion:   14.69487938 rev/day
Decay rate:        1.3e-07 rev/day^2
Epoch rev:            6762
Checksum:              324

/EX
SB KEPS @ AMSAT  $ORB10119.W
Orbital Elements  10119.WEATHER

HR AMSAT ORBITAL ELEMENTS FOR WEATHER SATELLITES
FROM WA5QGD FORT WORTH,TX April 29, 2010
Send Subscribe/unsubscribe to KEPS at http://www.amsat.org/mailman/listinfo/kep
BID: ORB10119.W
TO ALL RADIO AMATEURS BT

Satellite: NOAA-10
Catalog number: 16969
Epoch time:      10119.43595691
Element set:      49
Inclination:      098.6598 deg
RA of node:       148.8528 deg
Eccentricity:    0.0012334
Arg of perigee:   359.1537 deg
Mean anomaly:     000.9624 deg
Mean motion:   14.27414417 rev/day
Decay rate:        4.5e-07 rev/day^2
Epoch rev:           22862
Checksum:              322

Satellite: NOAA-11
Catalog number: 19531
Epoch time:      10119.16431107
Element set:      61
Inclination:      098.7681 deg
RA of node:       209.0221 deg
Eccentricity:    0.0010830
Arg of perigee:   290.7665 deg
Mean anomaly:     069.2371 deg
Mean motion:   14.14922885 rev/day
Decay rate:        5.4e-07 rev/day^2
Epoch rev:           11420
Checksum:              265

Satellite: NOAA-12
Catalog number: 21263
Epoch time:      10119.43287065
Element set:     547
Inclination:      098.7664 deg
RA of node:       132.5962 deg
Eccentricity:    0.0011818
Arg of perigee:   312.5872 deg
Mean anomaly:     047.4311 deg
Mean motion:   14.25630577 rev/day
Decay rate:        3.9e-07 rev/day^2
Epoch rev:           98545
Checksum:              309

